Time,TemperatureF,DewpointF,PressureIn,WindDirection,WindDirectionDegrees,WindSpeedMPH,WindSpeedGustMPH,Humidity,HourlyPrecipIn,Conditions,Clouds,dailyrainin,SoftwareType,DateUTC
2015-04-02 00:00:00,63.9,49.3,29.72,SE,139,1.0,3.0,59,0.00,,---,0.00,VWS V14.01,2015-04-02 05:00:00,
2015-04-02 00:05:00,63.9,49.8,29.71,SW,214,3.0,5.0,60,0.00,,---,0.00,VWS V14.01,2015-04-02 05:05:00,
2015-04-02 00:10:00,64.0,50.3,29.71,SE,131,0.0,4.0,61,0.00,,---,0.00,VWS V14.01,2015-04-02 05:10:00,
2015-04-02 00:15:00,63.9,50.2,29.71,SSW,208,0.0,3.0,61,0.00,,---,0.00,VWS V14.01,2015-04-02 05:15:00,
2015-04-02 00:20:00,63.9,50.6,29.71,SSW,201,0.0,0.0,62,0.00,,---,0.00,VWS V14.01,2015-04-02 05:20:00,
2015-04-02 00:25:00,63.9,51.1,29.71,SE,138,1.0,3.0,63,0.00,,---,0.00,VWS V14.01,2015-04-02 05:25:00,
2015-04-02 00:30:00,64.0,51.2,29.71,SE,143,0.0,4.0,63,0.00,,---,0.00,VWS V14.01,2015-04-02 05:30:00,
2015-04-02 00:35:00,63.9,51.5,29.71,South,181,1.0,4.0,64,0.00,,---,0.00,VWS V14.01,2015-04-02 05:35:00,
2015-04-02 00:40:00,64.0,51.6,29.71,SW,214,1.0,6.0,64,0.00,,---,0.00,VWS V14.01,2015-04-02 05:40:00,
2015-04-02 00:45:00,64.2,52.2,29.71,SW,219,4.0,9.0,65,0.00,,---,0.00,VWS V14.01,2015-04-02 05:45:00,
2015-04-02 00:50:00,64.7,52.7,29.70,SW,231,3.0,8.0,65,0.00,,---,0.00,VWS V14.01,2015-04-02 05:50:00,
2015-04-02 00:55:00,64.7,53.1,29.70,SSW,207,2.0,7.0,66,0.00,,---,0.00,VWS V14.01,2015-04-02 05:55:00,
2015-04-02 01:00:00,64.8,53.2,29.70,SSW,207,2.0,6.0,66,0.00,,---,0.00,VWS V14.01,2015-04-02 06:00:00,
2015-04-02 01:05:00,64.7,53.5,29.70,West,264,9.0,9.0,67,0.00,,---,0.00,VWS V14.01,2015-04-02 06:05:00,
2015-04-02 01:10:00,64.8,53.2,29.70,South,173,2.0,9.0,66,0.00,,---,0.00,VWS V14.01,2015-04-02 06:10:00,
2015-04-02 01:15:00,65.0,53.0,29.70,SSW,196,3.0,4.0,65,0.00,,---,0.00,VWS V14.01,2015-04-02 06:15:00,
2015-04-02 01:20:00,65.0,53.0,29.69,SW,215,4.0,15.0,65,0.00,,---,0.00,VWS V14.01,2015-04-02 06:20:00,
2015-04-02 01:25:00,64.8,52.8,29.69,NNW,345,3.0,6.0,65,0.00,,---,0.00,VWS V14.01,2015-04-02 06:25:00,
2015-04-02 01:30:00,64.8,52.8,29.69,SW,214,1.0,6.0,65,0.00,,---,0.00,VWS V14.01,2015-04-02 06:30:00,
2015-04-02 01:35:00,64.7,53.1,29.69,West,269,7.0,13.0,66,0.00,,---,0.00,VWS V14.01,2015-04-02 06:35:00,
2015-04-02 01:40:00,64.5,52.9,29.69,WSW,238,2.0,9.0,66,0.00,,---,0.00,VWS V14.01,2015-04-02 06:40:00,
2015-04-02 01:45:00,64.3,53.1,29.69,SW,214,3.0,11.0,67,0.00,,---,0.00,VWS V14.01,2015-04-02 06:45:00,
2015-04-02 01:50:00,64.3,53.5,29.71,South,182,3.0,9.0,68,0.00,,---,0.00,VWS V14.01,2015-04-02 06:50:00,
2015-04-02 01:55:00,64.3,53.5,29.71,WSW,237,3.0,11.0,68,0.00,,---,0.00,VWS V14.01,2015-04-02 06:55:00,
2015-04-02 01:59:00,64.2,53.4,29.71,South,179,3.0,16.0,68,0.00,,---,0.00,VWS V14.01,2015-04-02 06:59:00,
2015-04-02 02:04:00,64.3,53.9,29.71,South,188,7.0,11.0,69,0.00,,---,0.00,VWS V14.01,2015-04-02 07:04:00,
2015-04-02 02:09:00,64.2,54.6,29.71,South,172,4.0,10.0,71,0.00,,---,0.00,VWS V14.01,2015-04-02 07:09:00,
2015-04-02 02:14:00,64.2,55.0,29.71,South,169,5.0,16.0,72,0.00,,---,0.00,VWS V14.01,2015-04-02 07:14:00,
2015-04-02 02:19:00,64.0,55.2,29.70,SSW,211,2.0,11.0,73,0.00,,---,0.00,VWS V14.01,2015-04-02 07:19:00,
2015-04-02 02:24:00,63.7,55.3,29.70,NW,309,3.0,12.0,74,0.00,,---,0.00,VWS V14.01,2015-04-02 07:24:00,
2015-04-02 02:29:00,63.7,55.6,29.70,SSW,211,5.0,12.0,75,0.00,,---,0.00,VWS V14.01,2015-04-02 07:29:00,
2015-04-02 02:34:00,63.7,55.3,29.69,SW,235,2.0,6.0,74,0.00,,---,0.00,VWS V14.01,2015-04-02 07:34:00,